Avalon School, Santa Catalina Island Weather observations

Data are for 10 minute period ending at time listed.
 Day   Time   Solar   Ave.   Ave.  Ave.  Vector    Max.   Stn.    Total
  of    of     Rad.   Air    Rel.  Wind   Wind     Wind   Baro.  Precip.
Year   Day            Temp.  Hum.  Speed  Dir.     Gust   Pres.         
2017   (PST)   W/m2    F      %     mph   deg.      mph    mb.     in.  
------------------------------------------------------------------------
  35   21:00    0.0    56   86.7     2    146.5     4.8    999.0   0.00  
  35   21:10    0.0    56   86.4     2    177.5     7.8    999.0   0.00  
  35   21:20    0.0    56   86.3     3    210.3     6.0    999.0   0.00  
  35   21:30    0.0    57   86.1     3    201.0     6.6    999.0   0.00  
  35   21:40    0.0    56   86.1     2    212.4     7.2    999.0   0.00  
  35   21:50    0.0    56   86.7     1    185.6     2.4    999.0   0.82  
  35   22:00    0.0    54   88.4     0    237.3     2.4    999.0   1.26  
  35   22:10    0.0    53   89.4     0    251.5     2.4    999.0   0.00  
  35   22:20    0.0    53   90.8     1    230.8     1.8    999.0   0.37  
  35   22:30    0.0    53   91.3     0    112.0     2.4    999.0   0.01  
  35   22:40    0.0    52   91.6     0    116.9     1.8    999.0   0.00  
  35   22:50    0.0    52   92.0     1    268.3     2.4    999.0   0.00  
  35   23:00    0.0    52   92.5     0    270.3     2.4    999.0   0.00  
  35   23:10    0.0    51   92.9     0    283.0     1.8    999.0   0.00  
  35   23:20    0.0    51   93.2     0    285.1     1.8    999.0   0.00  
  35   23:30    0.0    51   93.4     0    104.1     1.8    999.0   0.00  
  35   23:40    0.0    51   93.5     0    104.1     2.4    999.0   0.00  
  35   23:50    0.0    51   93.9     1    238.7     3.0    999.0   0.00  
  36    0:00    0.0    51   93.9     1    268.5     2.4    999.0   0.01  
  36    0:10    0.0    51   94.1     2    263.6     3.0    999.0   0.00  
  36    0:20    0.0    51   94.1     0    273.0     1.8    999.0   0.00  
  36    0:30    0.0    51   94.3     0    246.4     3.0    999.0   0.16  
  36    0:40    0.0    52   94.4     0    164.7     1.8    999.0   0.00  
  36    0:50    0.0    52   94.4     0     49.9     1.2    999.0   0.00  
  36    1:00    0.0    52   94.5     1    259.1     3.0    999.0   0.00  
  36    1:10    0.0    53   94.5     0    266.9     1.2    999.0   0.00  
  36    1:20    0.0    53   94.5     0    263.0     1.2    999.0   0.00  
  36    1:30    0.0    53   94.5     0      0.0     0.0    999.0   0.00  
  36    1:40    0.0    53   94.5     0    128.6     1.8    999.0   0.14  
  36    1:50    0.0    53   94.5     0      0.0     0.0    999.0   0.00  
  36    2:00    0.0    54   94.6     0    196.8     3.0    999.0   0.00  
  36    2:10    0.0    54   94.2     1    241.7     3.0    999.0   0.00  
  36    2:20    0.0    54   93.8     0    218.3     1.2    999.0   0.00  
  36    2:30    0.0    54   93.6     0    244.2     4.2    999.0   0.01  
  36    2:40    0.0    54   93.4     1    202.5     4.2    999.0   0.50  
  36    2:50    0.0    55   93.0     2    189.7     4.8    999.0   2.00  
  36    3:00    0.0    55   92.6     0    201.3     2.4    999.0   2.00  
  36    3:10    0.0    55   92.4     1    236.1     3.6    999.0   1.92  
  36    3:20    0.0    55   92.1     0    222.3     2.4    999.0   2.00  
  36    3:30    0.0    54   91.8     1    280.0     4.8    999.0   1.44  
  36    3:40    0.0    54   91.6     0    244.2     1.2    999.0   0.02  
  36    3:50    0.0    54   91.7     2    260.3     3.6    999.0   0.96  
  36    4:00    0.0    53   91.5     0    249.7     3.0    999.0   0.07  
  36    4:10    0.0    53   91.9     1    184.6     3.6    999.0   0.00  
  36    4:20    0.0    54   92.0     1    259.0     3.0    999.0   0.00  
  36    4:30    0.0    54   91.5     1    260.6     3.6    999.0   0.00  
  36    4:40    0.0    54   91.2     1     17.7     2.4    999.0   0.00  
  36    4:50    0.0    54   91.3     0      0.0     0.0    999.0   0.00  
  36    5:00    0.0    54   91.5     0      0.0     0.0    999.0   0.00  
  36    5:10    0.0    54   91.8     0    105.4     2.4    999.0   0.00  
  36    5:20    0.0    54   91.9     0     72.8     1.8    999.0   0.00  
  36    5:30    0.0    54   92.0     0    258.0     1.2    999.0   0.00  
  36    5:40    0.0    54   92.1     0    349.4     2.4    999.0   0.00  
  36    5:50    0.0    54   92.0     1    140.1     3.6    999.0   0.00  
  36    6:00    0.0    55   91.8     0    116.9     2.4    999.0   0.00  
  36    6:10    0.0    54   91.8     0      8.2     1.2    999.0   0.00  
  36    6:20    0.0    54   91.9     0      0.0     0.0    999.0   0.00  
  36    6:30    0.0    55   92.1     0      0.0     0.0    999.0   0.00  
  36    6:40    1.0    55   92.2     0      0.0     0.0    999.0   0.11  
  36    6:50    2.0    54   92.3     0      0.0     0.0    999.0   1.48  
  36    7:00    2.0    55   92.5     0    267.1     1.2    999.0   2.00  
  36    7:10    5.0    55   92.7     0      0.0     0.0    999.0   1.61  
  36    7:20   12.0    55   92.7     0     66.7     3.0    999.0   0.00  
  36    7:30   22.0    55   92.2     2     81.3     4.2    999.0   0.00  
  36    7:40   32.0    55   90.4     2    199.9     6.0    999.0   0.00  
  36    7:50   53.0    56   88.4     2     75.7     6.0    999.0   0.07  
  36    8:00   64.0    56   86.6     2    212.7     7.2    999.0   0.00  
  36    8:10   85.0    57   85.4     3    189.1    12.5    999.0   0.00  
  36    8:20   87.0    57   84.8     4    247.4    10.2    999.0   0.00  
  36    8:30  165.0    57   85.3     4    187.6     7.8    999.0   0.00  
  36    8:40  153.0    57   86.6     4    175.4    11.9    999.0   0.00  
  36    8:50  178.0    57   88.3     3    101.1     8.4    999.0   0.00  
  36    9:00  159.0    57   89.4     3     83.7     6.6    999.0   1.67  
  36    9:10  108.0    56   90.4     2     88.5     3.6    999.0   1.99  
  36    9:20  123.0    57   90.2     1    193.3     2.4    999.0   1.79  
  36    9:30   98.0    57   89.3     2    127.0     5.4    999.0   1.25  
  36    9:40  105.0    58   87.8     2    265.4     6.6    999.0   0.42  
  36    9:50  120.0    58   87.6     2    109.0     4.2    999.0   0.17  
  36   10:00  138.0    57   87.6     2     79.4     4.8    999.0   0.01  
  36   10:10  167.0    58   87.6     3    112.8     4.8    999.0   0.00  
  36   10:20  143.0    58   87.4     2    100.9     4.8    999.0   0.00  
  36   10:30  127.0    57   88.6     2    106.8     5.4    999.0   0.00  
  36   10:40  121.0    57   89.3     2    240.8     4.2    999.0   0.00  
  36   10:50  126.0    57   89.5     2    118.4     4.2    999.0   0.00  
  36   11:00  129.0    57   89.2     2    133.3     5.4    999.0   0.00  
  36   11:10  130.0    57   89.1     2    129.0     4.2    999.0   0.00  
  36   11:20  128.0    57   89.2     3     96.9     7.8    999.0   0.00  
  36   11:30  112.0    57   89.4     2    123.6     3.6    999.0   0.00  
  36   11:40   79.0    57   90.2     2    111.9     4.8    999.0   0.00  
  36   11:50  119.0    57   91.2     1    144.4     3.0    999.0   0.00  
  36   12:00  108.0    57   91.9     2    120.8     3.0    999.0   0.00  
  36   12:10  184.0    56   92.3     2    120.8     4.2    999.0   0.00  
  36   12:20  156.0    57   91.7     1     77.9     2.4    999.0   0.00  
  36   12:30  154.0    57   90.9     1    288.3     2.4    999.0   0.00  
  36   12:40  164.0    57   90.5     2    284.7     4.2    999.0   0.00  
  36   12:50  229.0    57   89.9     2    286.7     3.6    999.0   0.00  
  36   13:00  280.0    57   89.7     2     55.6     3.6    999.0   0.00  
  36   13:10  335.0    57   90.2     2     95.9     4.2    999.0   0.00  
  36   13:20  280.0    57   90.2     3     80.7     4.8    999.0   0.00  
  36   13:30  236.0    58   89.8     1    156.6     3.0    999.0   0.00  
  36   13:40  136.0    58   89.0     1    158.6     3.6    999.0   1.31  
  36   13:50  104.0    57   89.8     3    119.2     6.0    999.0   0.18  
  36   14:00  142.0    57   91.3     2    303.9     5.4    999.0   0.06  
  36   14:10  159.0    57   91.4     1    137.9     5.4    999.0   0.00  
  36   14:20  185.0    57   90.7     2    238.5     5.4    999.0   0.80  
  36   14:30  154.0    58   89.4     2    183.3     4.2    999.0   2.00  
  36   14:40   81.0    58   89.2     2     74.8     4.8    999.0   2.00  
  36   14:50   80.0    57   90.4     2     99.7     4.2    999.0   2.00  
  36   15:00   74.0    57   91.3     2     89.7     6.0    999.0   1.48  
  36   15:10   44.0    57   91.8     3     84.1     6.6    999.0   0.21  
  36   15:20   45.0    57   92.1     3     73.2     5.4    999.0   0.29  
  36   15:30   55.0    57   92.4     3     76.8     7.2    999.0   0.12  
  36   15:40   56.0    56   92.6     1    136.7     3.0    999.0   0.03  
  36   15:50   61.0    57   92.8     1     66.7     3.6    999.0   0.00  
  36   16:00   65.0    57   92.8     1     94.1     3.6    999.0   0.00  
  36   16:10   65.0    57   92.7     1    119.4     3.0    999.0   0.00  
  36   16:20   40.0    57   92.6     0     78.7     2.4    999.0   0.00  
  36   16:30   52.0    57   92.4     0    266.2     1.8    999.0   0.00  
  36   16:40   68.0    57   92.3     1    288.3     2.4    999.0   1.52  
  36   16:50   53.0    57   92.0     1    323.5     3.6    999.0   0.30  
  36   17:00   19.0    57   91.5     2    111.8     6.0    999.0   0.00  
  36   17:10   15.0    57   91.2     1    182.5     3.6    999.0   0.00  
  36   17:20    5.0    57   90.7     3    253.8     6.6    999.0   0.00  
  36   17:30    2.0    57   90.0     2    255.0     4.8    999.0   0.00  
  36   17:40    1.0    57   90.2     2    119.9     4.2    999.0   0.00  
  36   17:50    0.0    56   90.9     1    161.8     3.0    999.0   0.00  
  36   18:00    0.0    56   91.4     0    215.0     1.8    999.0   0.00  
  36   18:10    0.0    56   91.9     0    128.4     1.8    999.0   0.00  
  36   18:20    0.0    56   92.3     0      0.0     0.0    999.0   0.00  
  36   18:30    0.0    56   92.5     0      0.0     0.0    999.0   0.00  
  36   18:40    0.0    55   92.8     0    258.0     1.2    999.0   0.00  
  36   18:50    0.0    54   93.1     1    263.6     1.8    999.0   0.00  
  36   19:00    0.0    53   93.4     0    260.3     1.8    999.0   0.00  
  36   19:10    0.0    53   93.6     1    269.5     3.6    999.0   0.00  
  36   19:20    0.0    53   93.9     1    256.7     3.0    999.0   0.00  
  36   19:30    0.0    52   93.9     1    267.8     3.0    999.0   0.00  
  36   19:40    0.0    52   94.2     1    235.6     3.0    999.0   0.08  
  36   19:50    0.0    52   94.2     1    263.7     3.6    999.0   0.00  
  36   20:00    0.0    52   94.3     1    258.4     3.0    999.0   0.00  
  36   20:10    0.0    52   94.4     1    262.1     3.0    999.0   0.00  
  36   20:20    0.0    51   94.4     0    265.4     3.0    999.0   0.00  
  36   20:30    0.0    51   94.6     1    260.6     2.4    999.0   0.00  
  36   20:40    0.0    51   94.6     1    264.6     3.0    999.0   0.00  
  36   20:50    0.0    51   94.7     1    273.1     3.0    999.0   0.00  

Return to Avalon School graphs page.


Western Regional Climate Center,wrcc@dri.edu